Stations météo

réclame
Mon MeteoGroup
Grünow, Allemagne (10289): Température de l'air & dewpoint: 15.07.2019 19:00:00 - 21.07.2019 19:00:00 (CEST)Grünow, Allemagne (10289): Température de l'air 5cm & Température de l'air -5cm: 15.07.2019 19:00:00 - 21.07.2019 19:00:00 (CEST)Grünow, Allemagne (10289): Température de l'air -20cm & Température de l'air -100cm: 15.07.2019 19:00:00 - 21.07.2019 19:00:00 (CEST)Grünow, Allemagne (10289): Vitesse du vent & gusts: 15.07.2019 19:00:00 - 21.07.2019 19:00:00 (CEST)Grünow, Allemagne (10289): Direction du vent: 15.07.2019 19:00:00 - 21.07.2019 19:00:00 (CEST)Grünow, Allemagne (10289): reduced air pressure: 15.07.2019 19:00:00 - 21.07.2019 19:00:00 (CEST)Grünow, Allemagne (10289): visibility: 15.07.2019 19:00:00 - 21.07.2019 19:00:00 (CEST)Grünow, Allemagne (10289): Ensoleillement: 15.07.2019 19:00:00 - 21.07.2019 19:00:00 (CEST)Grünow, Allemagne (10289): Quantités de précipitations: 15.07.2019 19:00:00 - 21.07.2019 19:00:00 (CEST)
Date & Time tt [°C] td [°C] tt 5cm [°C] tt -5cm [°C] tt -20cm [°C] tt -100cm [°C] ff [km/h] ff [knt] fx [km/h] fx [knt] dd ppp [hPa] vv [km] sd [min] rr [mm]
21.07.2019 19:00:00 25,1 10,7 26,3 26,9 23,4 18,2 24 13 39 21 W 1018,2 69 57 0,0
21.07.2019 18:00:00 25,8 10,5 27,8 28,2 23,1 18,2 27 15 37 20 W 1018,0 61 53 0,0
21.07.2019 17:00:00 26,0 9,5 28,5 29,3 22,7 18,2 26 14 40 21 WNW 1017,8 75 57 0,0
21.07.2019 16:00:00 25,9 12,2 29,5 29,8 22,2 18,2 27 15 43 23 W 1017,7 63 57 0,0
21.07.2019 15:00:00 24,4 12,6 26,6 27,1 21,8 18,1 26 14 39 21 W 1017,5 75 36 0,0
21.07.2019 14:00:00 24,4 13,2 28,0 26,5 21,3 18,1 23 13 37 20 W 1017,3 60 46 0,0
21.07.2019 13:00:00 22,6 14,2 23,9 24,5 20,9 18,1 20 11 37 20 W 1016,9 49 38 0,0
21.07.2019 12:00:00 22,2 15,8 25,0 23,6 20,6 18,1 20 11 31 17 WNW 1016,6 62 31 0,0
21.07.2019 11:00:00 20,6 16,6 22,4 23,4 20,4 18,1 13 7 27 15 WSW 1016,3 32 23 0,0
21.07.2019 10:00:00 18,8 16,1 19,4 20,7 20,4 18,1 15 8 21 11 W 1015,8 34 0 0,0
21.07.2019 09:00:00 18,1 15,9 18,8 20,4 20,4 18,1 13 7 23 12 W 1015,2 43 0 0,0
21.07.2019 08:00:00 17,5 16,4 17,7 19,3 20,5 18,0 12 7 22 12 W 1014,7 28 0 0,0
21.07.2019 07:00:00 17,1 16,0 17,0 18,7 20,7 18,0 10 5 23 12 W 1014,1 29 0 0,0
21.07.2019 06:00:00 16,6 15,9 16,5 18,4 21,0 18,0 15 8 24 13 SW 1014,0 22 0 0,0
21.07.2019 05:00:00 16,2 16,0 16,3 18,3 21,3 18,0 12 7 18 10 S 1013,7 0,3 0 0,0
21.07.2019 04:00:00 16,1 15,7 15,5 18,6 21,7 18,0 8 4 10 6 S 1013,0 17 0 0,0
21.07.2019 03:00:00 16,6 16,0 16,3 19,3 22,1 18,0 6 4 10 6 SSE 1013,0 25 0 0,0
21.07.2019 02:00:00 17,0 16,4 16,7 19,9 22,5 18,0 5 3 14 8 W 1013,1 20 0 1,5
21.07.2019 01:00:00 17,3 16,2 16,8 20,4 22,9 18,0 8 4 28 15 SW 1014,3 12 0 2,2
21.07.2019 00:00:00 19,0 14,2 16,7 22,2 23,3 17,9 23 12 29 16 W 1014,6 21 0 0,2
20.07.2019 23:00:00 21,7 11,6 21,0 23,2 23,6 17,9 21 11 37 20 NNW 1013,0 57 0 0,0
20.07.2019 22:00:00 23,8 12,5 23,1 24,3 23,9 17,9 21 12 33 18 NNW 1012,5 46 0 0,0
20.07.2019 21:00:00 25,3 12,5 24,5 25,5 24,1 17,9 12 6 22 12 SE 1011,9 49 4 0,0
20.07.2019 20:00:00 27,5 11,7 27,4 27,5 24,3 17,9 18 10 28 15 SSE 1011,8 62 38 0,0
20.07.2019 19:00:00 27,7 11,8 27,9 28,8 24,3 17,9 19 10 33 18 SSE 1012,1 53 14 0,0
20.07.2019 18:00:00 28,5 12,1 29,7 30,7 24,1 17,9 23 12 35 19 SSE 1012,0 48 34 0,0
20.07.2019 17:00:00 28,9 12,2 31,9 32,7 23,7 17,9 19 10 35 19 SSE 1012,6 61 56 0,0
20.07.2019 16:00:00 29,0 12,0 32,8 33,6 23,1 17,9 21 11 31 17 SSE 1013,2 52 56 0,0
20.07.2019 15:00:00 28,1 11,8 31,9 33,0 22,4 17,9 14 7 31 17 S 1013,6 56 56 0,0
20.07.2019 14:00:00 27,0 10,7 30,1 30,9 21,8 17,9 13 7 25 13 S 1014,0 66 45 0,0
20.07.2019 13:00:00 26,0 11,6 27,9 29,6 21,1 17,9 14 8 24 13 SE 1014,4 66 39 0,0
20.07.2019 12:00:00 26,0 10,9 30,4 29,9 20,3 17,9 10 5 22 12 E 1014,5 45 60 0,0
20.07.2019 11:00:00 25,1 12,6 28,2 26,9 19,8 17,9 10 5 19 11 ESE 1014,9 47 60 0,0
20.07.2019 10:00:00 23,8 14,7 26,2 23,6 19,4 17,9 8 5 14 7 ESE 1015,2 31 60 0,0
20.07.2019 09:00:00 21,5 14,7 23,7 21,5 19,2 17,9 5 3 11 6 E 1015,2 24 60 0,0
20.07.2019 08:00:00 18,9 15,4 21,0 19,1 19,2 17,9 4 2 7 4 NNE 1015,3 19 60 0,0
20.07.2019 07:00:00 16,1 15,1 16,3 16,8 19,4 17,8 2 1 4 2 SSE 1015,2 11 54 0,0
20.07.2019 06:00:00 14,5 14,3 13,0 16,1 19,6 17,8 0 0 4 2 N 1015,1 0,4 2 0,0
20.07.2019 05:00:00 14,7 14,4 12,1 16,4 19,9 17,8 3 2 7 4 WNW 1015,1 3,3 0 0,0
20.07.2019 04:00:00 15,4 14,9 13,0 17,2 20,2 17,8 6 4 8 4 W 1015,0 12 0 0,0
20.07.2019 03:00:00 16,3 15,5 14,9 18,0 20,5 17,8 3 2 7 4 W 1014,9 18 0 0,0
20.07.2019 02:00:00 16,9 15,8 16,1 18,7 20,7 17,8 5 3 8 4 W 1014,8 16 0 0,0
20.07.2019 01:00:00 17,1 15,7 16,5 19,0 21,0 17,8 5 3 7 4 WSW 1014,6 20 0 0,0
20.07.2019 00:00:00 17,0 15,5 16,4 19,2 21,3 17,8 2 1 5 3 N 1014,5 25 0 0,0
19.07.2019 23:00:00 17,6 15,3 15,6 19,3 21,6 17,8 3 2 7 4 N 1014,3 40 0 0,0
19.07.2019 22:00:00 18,6 16,2 17,2 20,6 21,9 17,8 2 1 8 4 WSW 1014,1 31 0 0,0
19.07.2019 21:00:00 19,3 15,9 18,3 21,5 22,2 17,7 3 2 4 2 NNW 1013,7 44 0 0,0
19.07.2019 20:00:00 20,7 14,7 19,5 23,3 22,4 17,7 4 2 7 4 W 1013,3 60 43 0,0
19.07.2019 19:00:00 20,3 15,2 21,5 24,3 22,5 17,7 6 3 16 9 NW 1012,9 47 27 0,7
19.07.2019 18:00:00 18,0 15,8 17,5 22,8 22,8 17,7 11 6 32 17 WNW 1013,4 12 0 1,3
19.07.2019 17:00:00 20,9 13,2 21,5 27,1 22,6 17,7 29 15 48 26 SW 1012,9 61 0 0,0
19.07.2019 16:00:00 24,6 13,6 27,1 30,3 22,2 17,7 15 8 26 14 SW 1012,4 32 36 0,0
19.07.2019 15:00:00 24,9 12,9 29,1 29,8 21,8 17,7 12 6 21 11 SSW 1012,5 57 31 0,0
19.07.2019 14:00:00 22,8 14,9 24,7 26,3 21,6 17,7 9 5 24 13 WSW 1012,7 44 0 0,0
19.07.2019 13:00:00 23,9 11,7 25,7 28,3 21,2 17,7 22 12 30 16 WSW 1012,7 75 13 0,0
19.07.2019 12:00:00 25,3 10,5 28,5 30,3 20,6 17,7 24 13 30 16 W 1012,2 54 51 0,0
19.07.2019 11:00:00 24,4 9,0 28,6 27,4 20,0 17,7 10 5 16 9 W 1012,2 48 48 0,0
19.07.2019 10:00:00 23,1 8,8 27,6 25,1 19,7 17,7 10 6 20 11 WSW 1011,9 72 58 0,0
19.07.2019 09:00:00 22,1 9,5 25,1 21,9 19,6 17,7 9 5 16 9 SW 1011,8 63 60 0,0
19.07.2019 08:00:00 19,9 9,7 21,6 19,3 19,6 17,6 6 4 11 6 SSE 1011,6 60 44 0,0
19.07.2019 07:00:00 15,9 10,0 15,8 18,1 19,8 17,6 5 3 9 5 WSW 1011,7 56 0 0,0
19.07.2019 06:00:00 16,1 9,6 14,4 18,2 20,0 17,6 5 3 13 7 ENE 1011,4 65 0 0,0
19.07.2019 05:00:00 17,5 9,5 16,6 18,7 20,2 17,6 9 5 14 8 E 1011,5 66 0 0,0
19.07.2019 04:00:00 17,4 9,5 17,0 18,9 20,5 17,6 7 4 14 8 ESE 1011,9 65 0 0,0
19.07.2019 03:00:00 17,5 9,5 16,8 19,2 20,7 17,6 4 2 21 11 ESE 1012,0 54 0 0,0
19.07.2019 02:00:00 17,8 9,4 17,5 19,2 21,0 17,6 17 9 24 13 ESE 1012,1 58 0 0,0
19.07.2019 01:00:00 17,8 9,0 16,8 19,3 21,4 17,6 14 8 22 12 ESE 1012,3 57 0 0,0
19.07.2019 00:00:00 18,1 9,4 16,8 19,8 21,8 17,6 11 6 17 9 E 1012,1 52 0 0,0
18.07.2019 23:00:00 18,9 8,6 17,4 20,7 22,2 17,6 12 7 18 10 E 1012,1 54 0 0,0
18.07.2019 22:00:00 20,0 8,1 18,5 22,0 22,6 17,6 11 6 16 9 E 1012,0 56 0 0,0
18.07.2019 21:00:00 21,8 7,5 20,2 23,8 22,9 17,6 10 5 16 9 E 1011,6 67 9 0,0
18.07.2019 20:00:00 24,0 6,5 23,9 26,2 23,0 17,6 11 6 19 10 E 1011,4 59 60 0,0
18.07.2019 19:00:00 24,8 5,4 25,7 28,4 22,8 17,6 10 5 24 13 SE 1011,6 52 57 0,0
18.07.2019 18:00:00 26,2 5,1 29,7 30,2 22,6 17,6 4 2 13 7 W 1011,5 75 58 0,0
18.07.2019 17:00:00 25,4 5,2 28,6 30,4 22,3 17,6 4 2 19 10 W 1012,0 57 38 0,0
18.07.2019 16:00:00 25,5 6,9 29,1 30,8 22,0 17,6 7 4 22 12 S 1012,3 75 28 0,0
18.07.2019 15:00:00 24,1 5,6 29,7 32,8 21,3 17,6 11 6 22 12 SE 1012,7 72 53 0,0
18.07.2019 14:00:00 25,1 6,3 30,7 33,6 20,6 17,6 9 5 23 12 S 1012,8 65 58 0,0
18.07.2019 13:00:00 23,6 8,5 30,0 31,6 19,7 17,6 5 3 19 11 ENE 1013,1 58 50 0,0
18.07.2019 12:00:00 22,2 8,2 27,4 30,9 18,9 17,6 9 5 21 12 SSE 1013,3 75 58 0,0
18.07.2019 11:00:00 21,3 9,5 25,0 27,4 18,2 17,6 9 5 19 10 E 1013,6 68 60 0,0
18.07.2019 10:00:00 20,1 10,7 24,2 23,3 17,8 17,6 9 5 18 10 SE 1013,8 64 59 0,0
18.07.2019 09:00:00 19,3 10,7 22,3 20,2 17,5 17,6 5 3 13 7 SE 1013,7 53 60 0,0
18.07.2019 08:00:00 16,7 10,8 18,7 16,6 17,5 17,6 7 4 11 6 S 1013,7 61 60 0,0
18.07.2019 07:00:00 12,8 9,5 14,0 14,3 17,7 17,6 3 1 4 2 SSW 1013,8 51 60 0,0
18.07.2019 06:00:00 9,9 9,3 7,6 13,5 18,0 17,6 0 0 4 2 N 1013,9 27 28 0,0
18.07.2019 05:00:00 9,2 8,7 7,1 13,7 18,3 17,6 4 2 6 3 S 1013,9 22 0 0,0
18.07.2019 04:00:00 9,4 8,5 6,5 14,1 18,7 17,6 2 1 9 5 NNE 1013,9 46 0 0,0
18.07.2019 03:00:00 9,9 8,6 7,5 14,7 19,0 17,6 3 2 6 4 ENE 1014,0 52 0 0,0
18.07.2019 02:00:00 10,6 8,5 8,4 15,3 19,4 17,6 2 1 7 4 NNW 1014,3 67 0 0,0
18.07.2019 01:00:00 11,4 8,4 9,2 16,2 19,8 17,6 2 1 11 6 E 1014,3 63 0 0,0
18.07.2019 00:00:00 14,7 9,7 13,2 17,1 20,1 17,6 8 4 14 8 ENE 1013,9 72 0 0,0
17.07.2019 23:00:00 15,1 8,8 13,2 18,0 20,5 17,6 10 5 14 8 NE 1013,9 70 0 0,0
17.07.2019 22:00:00 16,3 8,7 14,7 19,3 20,8 17,6 9 5 19 10 NE 1013,8 75 8 0,0
17.07.2019 21:00:00 18,6 9,5 17,6 21,2 21,0 17,6 13 7 23 12 NNE 1013,5 75 36 0,0
17.07.2019 20:00:00 20,9 10,3 21,7 23,2 21,1 17,6 16 9 22 12 NNE 1013,0 61 25 0,0
17.07.2019 19:00:00 22,4 10,3 25,7 25,8 21,0 17,6 14 8 24 13 NNE 1012,7 48 37 0,0
17.07.2019 18:00:00 22,3 9,5 24,2 26,3 20,7 17,6 13 7 22 12 NNW 1013,0 51 27 0,0
17.07.2019 17:00:00 22,1 9,3 25,1 27,3 20,4 17,7 12 6 27 14 NW 1013,3 62 28 0,0
17.07.2019 16:00:00 22,0 9,0 26,4 26,6 20,1 17,7 10 6 23 12 NNW 1013,4 75 10 0,0
17.07.2019 15:00:00 22,3 9,3 25,3 25,9 19,7 17,7 13 7 26 14 NNW 1013,3 64 2 0,0
17.07.2019 14:00:00 21,0 9,4 23,5 26,0 19,3 17,7 14 7 25 13 NW 1013,6 61 8 0,0
17.07.2019 13:00:00 20,9 8,9 25,9 26,4 18,9 17,7 16 8 27 15 NNW 1013,7 66 8 0,0
17.07.2019 12:00:00 19,8 9,1 22,4 25,0 18,3 17,7 13 7 33 18 NW 1013,7 66 19 0,0
17.07.2019 11:00:00 19,6 11,2 24,5 24,9 17,8 17,7 17 9 27 15 WNW 1013,8 44 45 0,0
17.07.2019 10:00:00 18,4 11,4 23,2 22,2 17,4 17,7 13 7 22 12 NW 1013,9 40 59 0,0
17.07.2019 09:00:00 16,5 11,8 20,2 18,9 17,3 17,7 16 8 22 12 NW 1014,0 37 36 0,0
17.07.2019 08:00:00 15,0 12,3 15,7 16,5 17,2 17,7 16 9 22 12 NW 1014,1 23 2 0,0
17.07.2019 07:00:00 13,6 12,3 13,9 15,2 17,4 17,7 8 4 13 7 WNW 1014,0 12 2 0,0
17.07.2019 06:00:00 11,7 11,0 10,3 13,9 17,6 17,7 8 5 16 9 W 1013,9 11 1 0,0
17.07.2019 05:00:00 12,7 11,5 11,7 14,2 17,8 17,7 13 7 22 12 WNW 1013,6 16 0 0,0
17.07.2019 04:00:00 13,2 11,4 11,6 14,4 18,0 17,7 16 9 24 13 WNW 1013,5 20 0 0,0
17.07.2019 03:00:00 12,4 10,7 10,7 14,6 18,3 17,7 12 7 16 9 WNW 1013,7 23 0 0,0
17.07.2019 02:00:00 12,7 10,6 10,9 15,0 18,6 17,7 11 6 21 12 WNW 1013,7 26 0 0,0
17.07.2019 01:00:00 13,2 10,5 11,2 15,5 18,9 17,7 13 7 17 9 WNW 1013,6 32 0 0,0
17.07.2019 00:00:00 13,6 10,2 11,2 16,1 19,2 17,7 10 6 15 8 W 1013,5 34 0 0,0
16.07.2019 23:00:00 14,2 10,1 12,5 17,2 19,5 17,7 13 7 20 11 WNW 1013,5 37 0 0,0
16.07.2019 22:00:00 16,3 10,7 14,5 18,1 19,8 17,7 15 8 21 11 WNW 1013,2 40 0 0,0
16.07.2019 21:00:00 17,6 10,8 16,5 19,7 19,9 17,7 16 9 34 19 NW 1012,9 43 54 0,0
16.07.2019 20:00:00 19,0 10,6 19,3 21,5 19,9 17,8 24 13 40 22 NW 1012,7 46 57 0,0
16.07.2019 19:00:00 20,3 10,5 22,2 23,5 19,7 17,8 29 15 40 22 NW 1012,4 48 32 0,0
16.07.2019 18:00:00 21,7 10,3 25,5 25,2 19,5 17,8 23 12 36 19 NNW 1011,9 61 35 0,0
16.07.2019 17:00:00 21,2 10,3 23,9 23,6 19,2 17,8 21 11 34 18 W 1012,1 58 7 0,0
16.07.2019 16:00:00 19,7 10,5 21,4 22,7 19,0 17,8 19 10 29 15 W 1012,6 75 0 0,0
16.07.2019 15:00:00 18,7 10,8 21,4 25,9 18,6 17,8 14 7 30 16 W 1012,6 63 30 0,0
16.07.2019 14:00:00 17,5 10,7 21,7 21,8 18,5 17,8 16 9 29 16 W 1013,1 65 5 0,0
16.07.2019 13:00:00 15,3 11,2 16,0 18,9 18,4 17,8 22 12 35 19 W 1013,5 41 0 0,0
16.07.2019 12:00:00 16,1 11,2 17,4 19,8 18,3 17,8 24 13 34 19 W 1013,4 44 0 0,0
16.07.2019 11:00:00 17,1 11,4 18,9 20,6 18,2 17,8 20 11 31 17 W 1012,8 48 0 0,0
16.07.2019 10:00:00 16,0 11,6 17,6 19,1 18,1 17,8 24 13 36 19 W 1012,8 36 0 0,0
16.07.2019 09:00:00 15,3 11,5 16,7 18,2 18,1 17,8 25 13 33 18 W 1012,6 29 0 0,0
16.07.2019 08:00:00 14,7 11,2 15,4 17,0 18,1 17,8 24 13 32 17 W 1012,7 25 0 0,0
16.07.2019 07:00:00 14,4 11,0 14,7 16,6 18,2 17,8 20 11 28 15 W 1012,6 31 0 0,0
16.07.2019 06:00:00 14,1 10,3 14,1 16,3 18,3 17,8 18 10 24 13 W 1012,4 35 0 0,0
16.07.2019 05:00:00 14,1 9,9 14,0 16,3 18,5 17,8 16 9 24 13 W 1012,7 45 0 0,0
16.07.2019 04:00:00 14,3 9,5 14,1 16,5 18,6 17,8 16 9 25 14 WSW 1012,8 40 0 0,0
16.07.2019 03:00:00 14,3 9,3 14,2 16,7 18,8 17,8 16 9 31 17 W 1013,2 36 0 0,0
16.07.2019 02:00:00 14,8 8,7 14,6 16,8 19,0 17,8 20 11 29 15 W 1013,5 39 0 0,0
16.07.2019 01:00:00 15,0 8,3 14,6 17,1 19,2 17,8 13 7 23 12 WSW 1013,6 43 0 0,0
16.07.2019 00:00:00 15,2 8,1 14,9 17,3 19,4 17,8 16 9 25 13 W 1013,9 48 0 0,0
15.07.2019 23:00:00 15,4 8,2 15,1 17,7 19,6 17,8 17 9 24 13 WSW 1014,0 48 0 0,0
15.07.2019 22:00:00 15,5 8,7 15,3 18,1 19,8 17,8 16 8 31 17 WSW 1014,4 54 0 0,0
15.07.2019 21:00:00 15,8 8,6 15,8 18,8 20,0 17,8 21 12 32 18 W 1014,4 43 0 0,0
15.07.2019 20:00:00 16,2 9,3 16,4 19,7 20,1 17,8 18 10 31 17 W 1014,4 40 0 0,0
15.07.2019 19:00:00 16,5 9,0 16,9 20,9 20,2 17,8 24 13 32 17 W 1014,8 43 0 0,0

tt = Température de l'air
td = dewpoint
tt 5cm = Température de l'air 5cm
tt -5cm = Température de l'air -5cm
tt -20cm = Température de l'air -20cm
tt -100cm = Température de l'air -100cm
ff = Vitesse du vent
fx = gusts
dd = Direction du vent
ppp = reduced air pressure
vv = visibility
sd = Ensoleillement
rr = Quantités de précipitations

stations d'obs. à proximité